Location: Castelbiague
(43.0361°N, 0.9246°E)
Time: 03:24:41
(UTC+00:00)

USA 215 - Pass Details

Date: 27 October 2021
Orbit: 1099 x 1109 km, 123.0° (Epoch: 20 November)

Event Time Altitude Azimuth Distance (km) Brightness Sun altitude
Exits shadow 20:30:00 26° 350° (N) 2,008 4.8 -39.4°
Drops below altitude 10° 20:34:54 10° 302° (WNW) 2,964 6.2 -40.3°
Sets 20:37:47 0° 290° (WNW) 3,923 7.0 -40.7°
